Погода в Херрюде

Швеция     57°41′28″N   12°18′17″E
темп.,
°C
ветер,
м/с
пор.,
м/с
влажн.,
%
обл.,
%
осадки,
мм/ч
давл.,
гПа
погр.,
м
12 апреля, пн
пн1223:00+2в3895100 0.3 1010411
02:00+2вюв2697100 0.4 1008314
05:00+2зюз3798100 0.3 1009511
08:00+2зюз488895 0.4 10111082
11:00+3з5980100 0.3 10131072
14:00+4юз5971100 0.6 10151425
17:00+5зюз59705 0.4 10151431
20:00+2юз398013 0.8 1016313
13 апреля, вт
вт1323:00+2ююз4118345 0.1 1016526
02:00+2ююз4108897 0.4 1015431
05:00+1зсз289649 0.5 1016259
08:00+2з268097 0.5 1018732
11:00+4зсз346695 0.1 10191337
14:00+6зсз345244 0.1 10201578
17:00+6зсз34477 0.0 10211343
20:00+2сз24722 0.0 102285
14 апреля, ср
ср1423:000ссз11804 0.0 102410
02:000ссз11795 0.0 102510
05:00−1ссв11785 0.0 102611
08:00+3св136152 0.0 1028174
11:00+7с363892 0.0 10282062
14:00+8ссв583394 0.0 10282562
17:00+8с463999 0.0 10282065
20:00+3сз25695 0.1 1029105
15 апреля, чт
чт1523:00+1с117996 0.0 103012
02:000св11825 0.0 103111
05:00−1св2278100 0.0 103127
08:00+3ссв2567100 0.0 1032176
11:00+7ссв3653100 0.0 10321192
14:00+10ссв4640100 0.0 10312152
17:00+10ссв4644100 0.0 10301711
20:00+6ссв386382 0.0 1031297
16 апреля, пт
пт1623:00+2св267849 0.0 1033101
02:00+1св26855 0.0 1033116
05:00+1ссв27905 0.0 1033143
08:00+4св39785 0.0 1034327
11:00+9св58555 0.0 10331221
14:00+12всв58435 0.0 10321613
17:00+12всв58447 0.0 10321733
20:00+9св410625 0.0 1033661